Powrót do katalogu

SL-8 DEB

AktywnyPO
NORAD 45523·DEBRIS·🇷🇺 Russia

Wystrzelony Feb 27, 1990 z Plesetsk Cosmodrome

Loading…

Następne Przeloty (najbliższe 24 godziny)

TLE

ŚwieżeSource: Space-Track

Epoka: Sep 12, 2026, 12:52 UTC

1 45523U 90017D   26255.53616644  .00000151  00000-0  13586-3 0  9994
2 45523  82.9569 342.7553 0043590  83.7744 276.8377 13.77172931643311

Śledź SL-8 DEB w czasie rzeczywistym z AllMySat

Download on the App Store